OCN31E EDDS-EDDH

Flight info

Callsign OCN31E
Flight time 1h 1m
Altitude 39000
Route OKIBA4H/07 OKIBA N851 RIMKI Z99 LOHRE DCT MASEK DCT ELNAT/N0441F380 P605 NOLGO NOLGO3P
Aircraft A320/M-SDE3FGHIRWY/LB1

Departure

Time 2026-04-26 18:24
Airport Stuttgart Airport (EDDS)

Arrival

Time 2026-04-26 19:26
Airport Hamburg Helmut Schmidt Airport (EDDH)
Time Latitude Longitude Altitude Speed Heading
2026-04-26 18:02 48.68883 9.19359 1288 ft 0 kts 345°
2026-04-26 18:14 48.68864 9.19367 1286 ft 4 kts 346°
2026-04-26 18:15 48.68839 9.19377 1286 ft 4 kts 346°
2026-04-26 18:15 48.68823 9.19383 1286 ft 2 kts 325°
2026-04-26 18:15 48.68814 9.19394 1286 ft 2 kts 284°
2026-04-26 18:15 48.68812 9.19411 1286 ft 2 kts 267°
2026-04-26 18:16 48.68813 9.19427 1286 ft 2 kts 257°
2026-04-26 18:16 48.68813 9.19428 1290 ft 0 kts 257°
2026-04-26 18:18 48.68809 9.19399 1291 ft 8 kts 257°
2026-04-26 18:19 48.68792 9.19313 1285 ft 8 kts 253°
2026-04-26 18:19 48.68773 9.19217 1288 ft 9 kts 254°
2026-04-26 18:19 48.68729 9.19145 1288 ft 11 kts 186°
2026-04-26 18:19 48.68649 9.19193 1287 ft 14 kts 127°
2026-04-26 18:20 48.68658 9.19334 1285 ft 14 kts 74°
2026-04-26 18:20 48.68687 9.19484 1288 ft 16 kts 74°
2026-04-26 18:20 48.68719 9.19650 1290 ft 17 kts 74°
2026-04-26 18:20 48.68730 9.19705 1285 ft 17 kts 73°
2026-04-26 18:21 48.68761 9.19920 1287 ft 2 kts 105°
2026-04-26 18:21 48.68751 9.19942 1290 ft 3 kts 128°
2026-04-26 18:21 48.68721 9.19969 1287 ft 7 kts 163°
2026-04-26 18:21 48.68684 9.19986 1289 ft 3 kts 163°
2026-04-26 18:22 48.68677 9.19989 1287 ft 0 kts 163°
2026-04-26 18:22 48.68672 9.19991 1285 ft 4 kts 163°
2026-04-26 18:22 48.68628 9.20011 1289 ft 7 kts 163°
2026-04-26 18:23 48.68584 9.20048 1287 ft 7 kts 115°
2026-04-26 18:23 48.68586 9.20084 1285 ft 0 kts 75°
2026-04-26 18:23 48.68603 9.20175 1289 ft 35 kts 74°
2026-04-26 18:24 48.68747 9.20922 1289 ft 108 kts 74°
2026-04-26 18:24 48.69008 9.22300 1294 ft 162 kts 74°
2026-04-26 18:24 48.69295 9.23971 1954 ft 162 kts 73°
2026-04-26 18:24 48.69586 9.25635 2640 ft 171 kts 73°
2026-04-26 18:25 48.69925 9.27483 3032 ft 192 kts 73°
2026-04-26 18:25 48.70324 9.29544 3442 ft 216 kts 72°
2026-04-26 18:25 48.70768 9.31843 3936 ft 238 kts 73°
2026-04-26 18:25 48.71246 9.34359 4554 ft 257 kts 73°
2026-04-26 18:26 48.71748 9.37000 5417 ft 265 kts 73°
2026-04-26 18:26 48.72266 9.39720 6312 ft 272 kts 73°
2026-04-26 18:26 48.72984 9.42334 7166 ft 275 kts 56°
2026-04-26 18:26 48.74302 9.44441 7992 ft 279 kts 32°
2026-04-26 18:27 48.76093 9.45559 8848 ft 281 kts
2026-04-26 18:27 48.78035 9.45440 9762 ft 281 kts 346°
2026-04-26 18:27 48.79964 9.44799 10574 ft 288 kts 346°
2026-04-26 18:27 48.82031 9.44536 10935 ft 313 kts
2026-04-26 18:28 48.84285 9.44835 11208 ft 337 kts
2026-04-26 18:28 48.86665 9.45224 11736 ft 349 kts
2026-04-26 18:28 48.89094 9.45647 12477 ft 354 kts
2026-04-26 18:28 48.91556 9.46072 13237 ft 358 kts
2026-04-26 18:29 48.94051 9.46482 14015 ft 362 kts
2026-04-26 18:29 48.96569 9.46875 14711 ft 366 kts
2026-04-26 18:29 48.98254 9.47129 15175 ft 368 kts
2026-04-26 18:29 49.00816 9.47514 15861 ft 371 kts
2026-04-26 18:30 49.03396 9.47906 16554 ft 375 kts
2026-04-26 18:30 49.06001 9.48306 17238 ft 378 kts
2026-04-26 18:30 49.08613 9.48859 17882 ft 382 kts 13°
2026-04-26 18:30 49.11150 9.50169 18520 ft 386 kts 19°
2026-04-26 18:31 49.13679 9.51602 19086 ft 389 kts 19°
2026-04-26 18:31 49.16224 9.53058 19638 ft 392 kts 19°
2026-04-26 18:31 49.18787 9.54534 20195 ft 395 kts 19°
2026-04-26 18:31 49.21373 9.55998 20739 ft 397 kts 15°
2026-04-26 18:32 49.24089 9.56708 21250 ft 398 kts
2026-04-26 18:32 49.26862 9.56951 21821 ft 399 kts
2026-04-26 18:32 49.29639 9.57182 22407 ft 400 kts
2026-04-26 18:32 49.32427 9.57406 22972 ft 402 kts
2026-04-26 18:33 49.35228 9.57646 23551 ft 404 kts
2026-04-26 18:33 49.38038 9.57954 24079 ft 405 kts
2026-04-26 18:33 49.40859 9.58312 24441 ft 410 kts
2026-04-26 18:33 49.43726 9.58696 24775 ft 415 kts
2026-04-26 18:34 49.46608 9.59090 25168 ft 418 kts
2026-04-26 18:34 49.49511 9.59478 25572 ft 419 kts
2026-04-26 18:34 49.52429 9.59858 25998 ft 421 kts
2026-04-26 18:34 49.55358 9.60232 26413 ft 423 kts
2026-04-26 18:35 49.58297 9.60604 26827 ft 425 kts
2026-04-26 18:35 49.61252 9.60975 27229 ft 427 kts
2026-04-26 18:35 49.64215 9.61346 27627 ft 429 kts
2026-04-26 18:35 49.67197 9.61718 28004 ft 431 kts
2026-04-26 18:36 49.70191 9.62096 28379 ft 432 kts
2026-04-26 18:36 49.73193 9.62480 28743 ft 434 kts
2026-04-26 18:36 49.76169 9.62862 29093 ft 436 kts
2026-04-26 18:36 49.79199 9.63252 29447 ft 438 kts
2026-04-26 18:37 49.82241 9.63645 29786 ft 440 kts
2026-04-26 18:37 49.85298 9.64038 30122 ft 442 kts
2026-04-26 18:37 49.88361 9.64429 30489 ft 442 kts
2026-04-26 18:37 49.91421 9.64822 30896 ft 440 kts
2026-04-26 18:38 49.94472 9.65216 31283 ft 439 kts
2026-04-26 18:38 49.97520 9.65611 31653 ft 439 kts
2026-04-26 18:38 50.00558 9.66005 32032 ft 438 kts
2026-04-26 18:38 50.03593 9.66397 32415 ft 437 kts
2026-04-26 18:39 50.06632 9.66786 32796 ft 437 kts
2026-04-26 18:39 50.09661 9.67171 33174 ft 436 kts
2026-04-26 18:39 50.12682 9.67557 33562 ft 435 kts
2026-04-26 18:39 50.15704 9.67950 33949 ft 435 kts
2026-04-26 18:40 50.18718 9.68351 34332 ft 434 kts
2026-04-26 18:40 50.21721 9.68749 34661 ft 433 kts
2026-04-26 18:40 50.24723 9.69139 34987 ft 432 kts
2026-04-26 18:40 50.27718 9.69528 35295 ft 432 kts
2026-04-26 18:41 50.30714 9.69919 35589 ft 432 kts
2026-04-26 18:41 50.33711 9.70312 35891 ft 431 kts
2026-04-26 18:41 50.36699 9.70704 36179 ft 431 kts
2026-04-26 18:41 50.39646 9.71090 36443 ft 431 kts
2026-04-26 18:42 50.42632 9.71480 36722 ft 430 kts
2026-04-26 18:42 50.45615 9.71873 36997 ft 430 kts
2026-04-26 18:42 50.48593 9.72264 37260 ft 430 kts
2026-04-26 18:42 50.51572 9.72656 37535 ft 429 kts
2026-04-26 18:43 50.54584 9.73055 37814 ft 428 kts
2026-04-26 18:43 50.57551 9.73446 38092 ft 427 kts
2026-04-26 18:43 50.60507 9.73836 38377 ft 426 kts
2026-04-26 18:43 50.63419 9.74219 38658 ft 425 kts
2026-04-26 18:44 50.66360 9.74608 38941 ft 424 kts
2026-04-26 18:44 50.69295 9.74999 39165 ft 422 kts
2026-04-26 18:44 50.75185 9.75785 39282 ft 427 kts
2026-04-26 18:45 50.81110 9.76567 39284 ft 428 kts
2026-04-26 18:45 50.87051 9.77364 39283 ft 428 kts
2026-04-26 18:46 50.92978 9.78168 39282 ft 427 kts
2026-04-26 18:46 50.98906 9.78966 39286 ft 427 kts
2026-04-26 18:47 51.04835 9.79763 39290 ft 428 kts
2026-04-26 18:47 51.10765 9.80561 39294 ft 428 kts
2026-04-26 18:48 51.16706 9.81357 39298 ft 428 kts
2026-04-26 18:48 51.22642 9.82162 39304 ft 428 kts
2026-04-26 18:49 51.28574 9.82974 39302 ft 427 kts
2026-04-26 18:49 51.34477 9.84174 39303 ft 433 kts 15°
2026-04-26 18:50 51.37195 9.86312 39301 ft 440 kts 32°
2026-04-26 18:50 51.39440 9.89577 39298 ft 446 kts 43°
2026-04-26 18:50 51.43609 9.96986 39293 ft 448 kts 44°
2026-04-26 18:51 51.47764 10.04463 39246 ft 446 kts 44°
2026-04-26 18:51 51.49799 10.08143 39098 ft 436 kts 44°
2026-04-26 18:51 51.51795 10.11768 38676 ft 431 kts 44°
2026-04-26 18:52 51.53774 10.15374 38133 ft 429 kts 44°
2026-04-26 18:52 51.55730 10.18952 37787 ft 423 kts 44°
2026-04-26 18:52 51.57660 10.22495 37285 ft 420 kts 44°
2026-04-26 18:52 51.59580 10.26033 36712 ft 420 kts 44°
2026-04-26 18:53 51.61500 10.29575 36123 ft 421 kts 44°
2026-04-26 18:53 51.63422 10.33129 35581 ft 421 kts 44°
2026-04-26 18:53 51.65345 10.36689 35258 ft 422 kts 44°
2026-04-26 18:53 51.67339 10.40131 35020 ft 417 kts 34°
2026-04-26 18:54 51.69764 10.42548 34775 ft 406 kts 16°
2026-04-26 18:54 51.72465 10.43553 34536 ft 395 kts 358°
2026-04-26 18:54 51.75155 10.43068 34333 ft 387 kts 339°
2026-04-26 18:54 51.77528 10.41157 34277 ft 381 kts 320°
2026-04-26 18:55 51.79351 10.38083 34295 ft 380 kts 306°
2026-04-26 18:55 51.80884 10.34583 34293 ft 381 kts 304°
2026-04-26 18:55 51.83894 10.27485 34291 ft 385 kts 304°
2026-04-26 18:56 51.86922 10.20299 34297 ft 387 kts 304°
2026-04-26 18:56 51.89949 10.13093 34296 ft 387 kts 304°
2026-04-26 18:57 51.92459 10.07100 34294 ft 387 kts 304°
2026-04-26 18:57 51.95979 9.98663 34294 ft 386 kts 304°
2026-04-26 18:58 51.98978 9.91444 34292 ft 386 kts 304°
2026-04-26 18:58 52.01950 9.84274 34298 ft 385 kts 304°
2026-04-26 18:59 52.03449 9.80679 34103 ft 383 kts 306°
2026-04-26 18:59 52.05317 9.77547 33118 ft 391 kts 323°
2026-04-26 18:59 52.07748 9.75513 32406 ft 398 kts 340°
2026-04-26 18:59 52.10496 9.74826 31762 ft 405 kts 358°
2026-04-26 19:00 52.13279 9.75643 31191 ft 412 kts 14°
2026-04-26 19:00 52.15967 9.77262 30598 ft 411 kts 16°
2026-04-26 19:00 52.18639 9.78915 29987 ft 409 kts 16°
2026-04-26 19:00 52.21289 9.80569 29372 ft 406 kts 16°
2026-04-26 19:01 52.23925 9.82215 28910 ft 405 kts 16°
2026-04-26 19:01 52.26546 9.83845 28448 ft 402 kts 16°
2026-04-26 19:01 52.29158 9.85464 28033 ft 400 kts 16°
2026-04-26 19:01 52.31755 9.87071 27632 ft 398 kts 16°
2026-04-26 19:02 52.34338 9.88667 27235 ft 395 kts 16°
2026-04-26 19:02 52.36903 9.90254 26850 ft 393 kts 16°
2026-04-26 19:02 52.39457 9.91836 26365 ft 391 kts 16°
2026-04-26 19:02 52.41136 9.92881 26169 ft 389 kts 16°
2026-04-26 19:03 52.44510 9.94990 25849 ft 388 kts 16°
2026-04-26 19:03 52.47026 9.96566 25602 ft 386 kts 17°
2026-04-26 19:03 52.49536 9.98142 25375 ft 385 kts 17°
2026-04-26 19:03 52.52032 9.99707 25284 ft 383 kts 16°
2026-04-26 19:04 52.54529 10.01266 25303 ft 384 kts 16°
2026-04-26 19:04 52.57070 10.02548 25302 ft 381 kts 11°
2026-04-26 19:04 52.59614 10.03672 25004 ft 377 kts 11°
2026-04-26 19:04 52.62137 10.04795 24500 ft 374 kts 11°
2026-04-26 19:05 52.67129 10.07019 23480 ft 369 kts 11°
2026-04-26 19:05 52.69613 10.07947 22943 ft 363 kts
2026-04-26 19:05 52.72095 10.08635 22433 ft 360 kts
2026-04-26 19:06 52.74563 10.09271 21948 ft 357 kts
2026-04-26 19:06 52.77011 10.09872 21453 ft 354 kts
2026-04-26 19:06 52.79443 10.10457 20978 ft 352 kts
2026-04-26 19:06 52.81857 10.11041 20524 ft 349 kts
2026-04-26 19:07 52.84221 10.11627 20088 ft 347 kts
2026-04-26 19:07 52.86632 10.12235 19648 ft 345 kts
2026-04-26 19:07 52.88996 10.12835 19219 ft 342 kts
2026-04-26 19:07 52.91311 10.13428 18802 ft 340 kts
2026-04-26 19:08 52.93647 10.14024 18376 ft 338 kts
2026-04-26 19:08 52.95962 10.14620 17917 ft 336 kts
2026-04-26 19:08 52.98260 10.15208 17465 ft 333 kts
2026-04-26 19:08 53.00541 10.15788 17045 ft 330 kts
2026-04-26 19:09 53.02805 10.16367 16627 ft 328 kts
2026-04-26 19:09 53.05050 10.16941 16220 ft 325 kts
2026-04-26 19:09 53.07278 10.17509 15828 ft 323 kts
2026-04-26 19:09 53.09488 10.18069 15440 ft 320 kts
2026-04-26 19:10 53.11685 10.18627 15059 ft 318 kts
2026-04-26 19:10 53.13863 10.19183 14681 ft 316 kts
2026-04-26 19:10 53.16027 10.19734 14325 ft 313 kts
2026-04-26 19:10 53.18150 10.20280 14173 ft 303 kts
2026-04-26 19:11 53.20177 10.20808 13858 ft 289 kts
2026-04-26 19:11 53.22167 10.21327 13284 ft 283 kts
2026-04-26 19:11 53.24078 10.21822 12672 ft 280 kts
2026-04-26 19:11 53.26003 10.22319 12221 ft 279 kts
2026-04-26 19:12 53.27917 10.22814 11977 ft 278 kts
2026-04-26 19:12 53.29821 10.23307 11731 ft 276 kts
2026-04-26 19:12 53.31719 10.23799 11445 ft 277 kts
2026-04-26 19:12 53.33626 10.24290 11298 ft 277 kts
2026-04-26 19:13 53.34915 10.24621 11295 ft 277 kts
2026-04-26 19:13 53.36822 10.25113 11301 ft 278 kts
2026-04-26 19:13 53.38734 10.25612 11303 ft 278 kts
2026-04-26 19:13 53.40643 10.26110 11297 ft 278 kts
2026-04-26 19:14 53.42554 10.26605 11293 ft 277 kts
2026-04-26 19:14 53.44449 10.27095 11000 ft 275 kts
2026-04-26 19:14 53.46312 10.27578 10654 ft 274 kts
2026-04-26 19:14 53.47581 10.27909 10420 ft 273 kts
2026-04-26 19:15 53.50055 10.28558 9944 ft 271 kts
2026-04-26 19:15 53.51898 10.29042 9714 ft 264 kts
2026-04-26 19:15 53.53701 10.29518 9580 ft 254 kts
2026-04-26 19:15 53.55412 10.29969 9445 ft 244 kts
2026-04-26 19:16 53.57049 10.30402 9193 ft 240 kts
2026-04-26 19:16 53.58707 10.30839 8927 ft 237 kts
2026-04-26 19:16 53.60331 10.31265 8675 ft 236 kts
2026-04-26 19:16 53.61931 10.31679 8357 ft 237 kts
2026-04-26 19:17 53.63552 10.32098 8042 ft 235 kts
2026-04-26 19:17 53.65182 10.32524 7702 ft 234 kts
2026-04-26 19:17 53.66766 10.32943 7364 ft 233 kts
2026-04-26 19:17 53.68357 10.33366 7141 ft 228 kts
2026-04-26 19:18 53.69903 10.33778 6909 ft 223 kts
2026-04-26 19:18 53.71374 10.34635 6544 ft 224 kts 22°
2026-04-26 19:18 53.72774 10.35820 6006 ft 225 kts 24°
2026-04-26 19:18 53.74170 10.37031 5489 ft 226 kts 25°
2026-04-26 19:19 53.75573 10.38232 5005 ft 227 kts 23°
2026-04-26 19:19 53.77079 10.38808 4691 ft 221 kts 352°
2026-04-26 19:19 53.78462 10.37890 4451 ft 213 kts 316°
2026-04-26 19:19 53.79261 10.35836 4271 ft 211 kts 285°
2026-04-26 19:20 53.79390 10.33396 4092 ft 210 kts 260°
2026-04-26 19:20 53.79109 10.31842 4008 ft 208 kts 243°
2026-04-26 19:20 53.77975 10.29281 3832 ft 200 kts 231°
2026-04-26 19:20 53.77107 10.27508 3715 ft 190 kts 231°
2026-04-26 19:21 53.76296 10.25846 3595 ft 177 kts 231°
2026-04-26 19:21 53.75527 10.24271 3415 ft 172 kts 231°
2026-04-26 19:21 53.74771 10.22723 3206 ft 170 kts 231°
2026-04-26 19:21 53.74020 10.21187 3056 ft 169 kts 231°
2026-04-26 19:22 53.73270 10.19654 2997 ft 169 kts 231°
2026-04-26 19:22 53.72525 10.18131 2847 ft 168 kts 231°
2026-04-26 19:22 53.71786 10.16624 2670 ft 170 kts 231°
2026-04-26 19:22 53.71027 10.15077 2426 ft 172 kts 231°
2026-04-26 19:23 53.70261 10.13518 2180 ft 172 kts 232°
2026-04-26 19:23 53.69500 10.11959 1930 ft 172 kts 232°
2026-04-26 19:23 53.68753 10.10437 1725 ft 161 kts 232°
2026-04-26 19:23 53.68085 10.09082 1505 ft 143 kts 232°
2026-04-26 19:24 53.67459 10.07807 1290 ft 139 kts 233°
2026-04-26 19:24 53.66849 10.06567 1092 ft 136 kts 232°
2026-04-26 19:24 53.65648 10.04118 727 ft 136 kts 232°
2026-04-26 19:25 53.65044 10.02891 558 ft 135 kts 233°
2026-04-26 19:25 53.64647 10.02082 417 ft 134 kts 233°
2026-04-26 19:25 53.63852 10.00468 167 ft 132 kts 232°
2026-04-26 19:25 53.63281 9.99313 49 ft 117 kts 230°
2026-04-26 19:26 53.62891 9.98527 49 ft 49 kts 230°
2026-04-26 19:26 53.62775 9.98349 50 ft 16 kts 186°
2026-04-26 19:26 53.62701 9.98418 50 ft 9 kts 138°
2026-04-26 19:26 53.62675 9.98483 50 ft 6 kts 92°
2026-04-26 19:27 53.62696 9.98562 51 ft 12 kts 52°
2026-04-26 19:27 53.62748 9.98667 50 ft 11 kts 49°
2026-04-26 19:27 53.62803 9.98782 50 ft 16 kts 50°
2026-04-26 19:27 53.62877 9.98929 50 ft 17 kts 49°
2026-04-26 19:28 53.62956 9.99090 50 ft 19 kts 50°
2026-04-26 19:28 53.63047 9.99278 50 ft 22 kts 54°
2026-04-26 19:28 53.63142 9.99498 50 ft 25 kts 53°
2026-04-26 19:28 53.63242 9.99704 50 ft 20 kts 45°
2026-04-26 19:29 53.63338 9.99884 50 ft 21 kts 50°
2026-04-26 19:29 53.63420 10.00049 51 ft 16 kts 53°
2026-04-26 19:29 53.63404 10.00194 49 ft 14 kts 131°
2026-04-26 19:29 53.63370 10.00278 51 ft 7 kts 88°
2026-04-26 19:30 53.63373 10.00336 51 ft 0 kts 84°